Weather in Kamenka

Ukraine / Mykolaiv District     46°48′58″N   31°40′22″E
temp.,
°C
wind,
m/s
gust,
m/s
humid.,
%
clouds,
%
prec.,
mm/h
press.,
hPa
HPBL,
m
8 december, wed
wed823:00+11ne2276100 0.1 100421
02:00+10ne3382100 0.8 100447
05:00+9nne5885100 0.1 1002182
08:00+9e4789100 0.2 1003208
11:00+10ne4578100 0.2 1003158
14:00+11ene4679100 0.3 1003254
17:00+10ne4680100 0.1 1004173
20:00+10ene4685100 0.1 1005172
9 december, thu
thu923:00+9se359298 0.0 1006197
02:00+9ne1191100 0.1 100742
05:00+9nnw2490100 0.1 1009162
08:00+8wnw3487100 0.1 1011220
11:00+8w4585100 0.0 1013321
14:00+8wnw458085 0.1 1014389
17:00+6sw33845 0.0 101672
20:00+6ssw34875 0.0 101796
10 december, fri
fri1023:00+6sse33903 0.0 101857
02:00+9s5876100 0.0 1017231
05:00+9sse61092100 0.0 1017357
08:00+9se71391100 0.0 1017451
11:00+10se91686100 0.0 1017584
14:00+11se91578100 0.0 1016492
17:00+10se81673100 0.0 1016429
20:00+10se81776100 0.0 1015423
11 december, sat
sat1123:00+9se71478100 0.0 1015327
02:00+10sse6137995 0.0 1015473
05:00+10sse81594100 5.7 1015588
08:00+10sse6139649 6.0 1016423
11:00+11s6108679 0.0 1018624
14:00+12s5883100 0.0 1019446
17:00+10se4791100 0.0 1020145
20:00+9ese5109192 0.0 1021185
12 december, sun
sun1223:00+8ese5108786 0.0 1021205
02:00+8e61291100 0.0 1021226
05:00+8e81584100 0.0 1020335
08:00+7e91779100 0.0 1019412
11:00+9e91871100 0.0 1018490
14:00+9ese91568100 0.0 1016482
17:00+8ese91673100 0.0 1016427
20:00+7ese81477100 0.0 1016405